{"data":{"norad_id":45755,"epoch":"2026-05-24T13:00:22.601664Z","epoch_age_seconds":107904,"freshness":"FRESH","line1":"1 45755U 20038AB  26144.54192826  .00042834  00000+0  40431-3 0  9998","line2":"2 45755  53.0449 187.5637 0004488  24.5504 335.5724 15.66614484328584","mean_motion":15.66614484,"eccentricity":0.0004488,"inclination_deg":53.0449,"raan_deg":187.5637,"arg_perigee_deg":24.5504,"mean_anomaly_deg":335.5724,"bstar":0.00040431,"rev_number":32858,"period_min":91.917955228097,"perigee_km":365.57157969773,"apogee_km":371.62745039363,"semimajor_km":6746.7365150457,"source":"CELESTRAK","updated_at":"2026-05-25T13:38:16.434261Z"}}